Other Public Products
Issued by NWS Charleston, SC

Current Version | Previous Version | Graphics & Text | Print | Product List | Glossary On
Versions: 1 2 3 4 5 6 7 8 9 10 11 12 13 14 15 16 17 18 19 20 21 22 23 24 25 26 27 28 29 30 31 32 33 34 35 36 37 38 39 40 41 42 43 44 45 46 47 48 49 50
308
FPUS82 KCHS 260327
OPUCHS

TEST...KCHS/KSAV Gateway Observations...TEST
National Weather Service Charleston SC
1100 PM EDT TUE JUL 25 2017

NOTE: "fair" indicates few or no clouds below 12,000 feet with no
significant weather and/or obstructions to visibility.

SCZ050-WAZ558-NCZ071-TXZ119-213-PAZ071-DCZ001-FLZ074-172-MI076-
NYZ176-178-MAZ016-IL014-TNZ027-NJZ106-GAZ044-MD014-260400-

...Gateway Observations for Charleston International...

CITY           SKY/WX    TMP DP  RH WIND       PRES   REMARKS
Chas Airport   MOCLDY    77  73  87 SW6       30.09R
Seattle        CLEAR     81  49  32 N7        29.99S
Charlotte      MOCLDY    86  69  56 E3        30.12R HX  90
Dallas DFW     CLEAR     90  70  51 SE15      30.01R HX  95
Dallas Love    CLEAR     89  69  51 SE15      30.02R HX  93
Philladelphia  CLOUDY    69  65  86 E9        30.20R
Wash National  PTCLDY    75  63  66 N9        30.18S
Baltimore      PTCLDY    71  62  73 N5        30.18R
Miami          PTCLDY    86  77  74 SE6       30.11R HX  97
Detroit        PTCLDY    68  63  84 SE5       30.20S
Newark         CLOUDY    69  59  70 NE9       30.21R
Laguardia      CLOUDY    68  60  75 NE8       30.21S
J F K          MOCLDY    67  61  81 N7        30.22R
Boston Logan   CLEAR     61  53  75 SW5       30.21S
Ft. Lauderdale MOCLDY    85  78  80 SE8       30.10S HX  96
Chicago O`Hare PTCLDY    71  58  63 S8        30.15R
Chicago Midway PTCLDY    75  58  55 SE6       30.15R
Houston Bush   MOCLDY    85  75  72 S9        30.08R HX  93
Houston Hobby  PTCLDY    83  73  72 SE5       30.09R
Nashville      MOCLDY    80  74  81 S5        30.10R
Atlanta        MOCLDY    77  72  84 CALM      30.13R

$$

GAZ044-118-TXZ119-213-NCZ071-DCZ001-MDZ014-506-PAZ021-071-NJZ106-
NYZ176-178-MAZ106-OHZ011-021-055-MIZ076-KYZ091-ILZ014-INZ047-
MNZ060-ONZ431-260400-

...Gateway Observations for Savannah International...

CITY           SKY/WX    TMP DP  RH WIND       PRES   REMARKS
Savannah Arpt  CLOUDY    77  75  93 W5        30.11R
Atlanta        MOCLDY    77  72  84 CALM      30.13R
Charlotte      MOCLDY    86  69  56 E3        30.12R HX  90
Dallas DFW     CLEAR     90  70  51 SE15      30.01R HX  95
Houston Bush   MOCLDY    85  75  72 S9        30.08R HX  93
Wash National  PTCLDY    75  63  66 N9        30.18S
Wash Dulles    PTCLDY    72  60  66 N7        30.19R
Baltimore      PTCLDY    71  62  73 N5        30.18R
Philadelphia   CLOUDY    69  65  86 E9        30.20R
Newark         CLOUDY    69  59  70 NE9       30.21R
Laguardia      CLOUDY    68  60  75 NE8       30.21S
J F K          MOCLDY    67  61  81 N7        30.22R
Boston         CLEAR     61  53  75 SW5       30.21S
Pittsburg      MOCLDY    66  60  81 W3        30.22R
Akron          CLEAR     65  55  70 NE9       30.23S
Cleveland      PTCLDY    69  56  62 E6        30.23S
Cincinnati     CLEAR     70  63  78 E8        30.17R
Columbus       CLEAR     63  61  91 E3        30.20S
Detroit        PTCLDY    68  63  84 SE5       30.20S
Chicago O`Hare PTCLDY    71  58  63 S8        30.15R
Minneapolis    CLOUDY    80  72  76 SW12G23   29.92R
Indianapolis   PTCLDY    72  60  66 E8        30.15S
Toronto Canada CLEAR     64  55  72 S5        30.22S

$$




USA.gov is the U.S. government's official web portal to all federal, state and local government web resources and services.